Saint Bonnet de Bellac- Haute Vienne - France
Donnes mto: mardi, 22/11/2011
Date Horaire Temp. E. Hum. E. P.atmo. Pluie Vent Direction Direction Ensoleilleme Solaire P. de rose Temp au vent Rafales
22/11/2011 00:00 9,1 C 86 % 1012,7 hPa 0,0 mm 0,0 km/h (0 Bft) E-SE 112 0 min 0 W/m 6,9 C 9,1 C 0,0 km/h (0 Bft)
22/11/2011 00:05 9,1 C 86 % 1012,7 hPa 0,0 mm 0,4 km/h (0 Bft) E-SE 112 0 min 0 W/m 6,9 C 9,1 C 0,4 km/h (0 Bft)
22/11/2011 00:10 9,2 C 86 % 1012,6 hPa 0,0 mm 0,0 km/h (0 Bft) E 90 0 min 0 W/m 7,0 C 9,2 C 0,0 km/h (0 Bft)
22/11/2011 00:15 9,2 C 86 % 1012,7 hPa 0,0 mm 0,0 km/h (0 Bft) E 90 0 min 0 W/m 7,0 C 9,2 C 0,0 km/h (0 Bft)
22/11/2011 00:20 9,1 C 86 % 1012,6 hPa 0,0 mm 0,0 km/h (0 Bft) E-NE 67 0 min 0 W/m 6,9 C 9,1 C 0,0 km/h (0 Bft)
22/11/2011 00:25 9,1 C 86 % 1012,7 hPa 0,0 mm 0,0 km/h (0 Bft) E-NE 67 0 min 0 W/m 6,9 C 9,1 C 0,0 km/h (0 Bft)
22/11/2011 00:30 9,1 C 86 % 1012,7 hPa 0,0 mm 0,0 km/h (0 Bft) E-NE 67 0 min 0 W/m 6,9 C 9,1 C 0,0 km/h (0 Bft)
22/11/2011 00:35 9,0 C 86 % 1012,6 hPa 0,0 mm 0,0 km/h (0 Bft) E-NE 67 0 min 0 W/m 6,8 C 9,0 C 0,0 km/h (0 Bft)
22/11/2011 00:40 8,9 C 86 % 1012,6 hPa 0,0 mm 0,0 km/h (0 Bft) E-SE 112 0 min 0 W/m 6,7 C 8,9 C 0,0 km/h (0 Bft)
22/11/2011 00:45 8,9 C 86 % 1012,6 hPa 0,0 mm 0,0 km/h (0 Bft) E-SE 112 0 min 0 W/m 6,7 C 8,9 C 0,0 km/h (0 Bft)
22/11/2011 00:50 8,8 C 86 % 1012,6 hPa 0,0 mm 0,0 km/h (0 Bft) E-SE 112 0 min 0 W/m 6,6 C 8,8 C 0,0 km/h (0 Bft)
22/11/2011 00:55 8,9 C 86 % 1012,6 hPa 0,0 mm 0,0 km/h (0 Bft) E-SE 112 0 min 0 W/m 6,7 C 8,9 C 0,0 km/h (0 Bft)
22/11/2011 01:00 8,9 C 87 % 1012,6 hPa 0,0 mm 0,0 km/h (0 Bft) N 360 0 min 0 W/m 6,9 C 8,9 C 0,0 km/h (0 Bft)
22/11/2011 01:05 8,9 C 87 % 1012,7 hPa 0,0 mm 0,0 km/h (0 Bft) SE 135 0 min 0 W/m 6,9 C 8,9 C 0,0 km/h (0 Bft)
22/11/2011 01:10 9,1 C 87 % 1012,7 hPa 0,0 mm 0,0 km/h (0 Bft) E-SE 112 0 min 0 W/m 7,1 C 9,1 C 0,0 km/h (0 Bft)
22/11/2011 01:15 9,1 C 87 % 1012,6 hPa 0,0 mm 0,0 km/h (0 Bft) E 90 0 min 0 W/m 7,1 C 9,1 C 0,0 km/h (0 Bft)
22/11/2011 01:20 9,1 C 87 % 1012,7 hPa 0,0 mm 0,0 km/h (0 Bft) N 360 0 min 0 W/m 7,1 C 9,1 C 0,0 km/h (0 Bft)
22/11/2011 01:25 9,2 C 87 % 1012,6 hPa 0,0 mm 0,7 km/h (0 Bft) E-SE 112 0 min 0 W/m 7,2 C 9,2 C 4,0 km/h (1 Bft)
22/11/2011 01:30 9,3 C 87 % 1012,7 hPa 0,0 mm 0,7 km/h (0 Bft) E-SE 112 0 min 0 W/m 7,2 C 9,3 C 4,3 km/h (1 Bft)
22/11/2011 01:35 9,4 C 87 % 1012,6 hPa 0,0 mm 0,4 km/h (0 Bft) E-SE 112 0 min 0 W/m 7,3 C 9,4 C 0,4 km/h (0 Bft)
22/11/2011 01:40 9,4 C 87 % 1012,5 hPa 0,0 mm 1,4 km/h (1 Bft) E-NE 67 0 min 0 W/m 7,3 C 9,4 C 4,3 km/h (1 Bft)
22/11/2011 01:45 9,6 C 86 % 1012,5 hPa 0,0 mm 0,0 km/h (0 Bft) E 90 0 min 0 W/m 7,4 C 9,6 C 0,0 km/h (0 Bft)
22/11/2011 01:50 9,7 C 86 % 1012,5 hPa 0,0 mm 0,4 km/h (0 Bft) E 90 0 min 0 W/m 7,5 C 9,7 C 3,2 km/h (1 Bft)
22/11/2011 01:55 9,8 C 86 % 1012,5 hPa 0,0 mm 0,4 km/h (0 Bft) E 90 0 min 0 W/m 7,6 C 9,8 C 0,4 km/h (0 Bft)
22/11/2011 02:02 9,8 C 86 % 1012,4 hPa 0,0 mm 0,0 km/h (0 Bft) E-NE 67 0 min 0 W/m 7,6 C 9,8 C 0,0 km/h (0 Bft)
22/11/2011 02:05 9,8 C 86 % 1012,4 hPa 0,0 mm 0,4 km/h (0 Bft) E 90 0 min 0 W/m 7,6 C 9,8 C 0,4 km/h (0 Bft)
22/11/2011 02:10 9,8 C 85 % 1012,4 hPa 0,0 mm 0,0 km/h (0 Bft) E-SE 112 0 min 0 W/m 7,4 C 9,8 C 0,0 km/h (0 Bft)
22/11/2011 02:15 9,8 C 85 % 1012,5 hPa 0,0 mm 0,0 km/h (0 Bft) SE 135 0 min 0 W/m 7,4 C 9,8 C 0,0 km/h (0 Bft)
22/11/2011 02:20 9,8 C 85 % 1012,4 hPa 0,0 mm 0,0 km/h (0 Bft) E 90 0 min 0 W/m 7,4 C 9,8 C 0,0 km/h (0 Bft)
22/11/2011 02:25 9,8 C 85 % 1012,4 hPa 0,0 mm 0,0 km/h (0 Bft) SE 135 0 min 0 W/m 7,4 C 9,8 C 0,0 km/h (0 Bft)
22/11/2011 02:30 9,8 C 85 % 1012,5 hPa 0,0 mm 0,0 km/h (0 Bft) SE 135 0 min 0 W/m 7,4 C 9,8 C 0,0 km/h (0 Bft)
22/11/2011 02:35 9,8 C 85 % 1012,6 hPa 0,0 mm 0,0 km/h (0 Bft) E-SE 112 0 min 0 W/m 7,4 C 9,8 C 0,0 km/h (0 Bft)
22/11/2011 02:40 9,8 C 85 % 1012,5 hPa 0,0 mm 0,4 km/h (0 Bft) E-SE 112 0 min 0 W/m 7,4 C 9,8 C 3,2 km/h (1 Bft)
22/11/2011 02:45 9,9 C 85 % 1012,5 hPa 0,0 mm 0,0 km/h (0 Bft) E 90 0 min 0 W/m 7,5 C 9,9 C 0,0 km/h (0 Bft)
22/11/2011 02:50 9,9 C 85 % 1012,5 hPa 0,0 mm 0,7 km/h (0 Bft) E 90 0 min 0 W/m 7,5 C 9,9 C 3,6 km/h (1 Bft)
22/11/2011 02:55 10,0 C 85 % 1012,5 hPa 0,0 mm 1,4 km/h (1 Bft) E-SE 112 0 min 0 W/m 7,6 C 10,0 C 4,3 km/h (1 Bft)
22/11/2011 03:00 10,0 C 85 % 1012,6 hPa 0,0 mm 0,0 km/h (0 Bft) E-NE 67 0 min 0 W/m 7,6 C 10,0 C 3,2 km/h (1 Bft)
22/11/2011 03:05 10,0 C 85 % 1012,6 hPa 0,0 mm 0,4 km/h (0 Bft) SE 135 0 min 0 W/m 7,6 C 10,0 C 4,0 km/h (1 Bft)
22/11/2011 03:10 10,0 C 85 % 1012,6 hPa 0,0 mm 0,0 km/h (0 Bft) E 90 0 min 0 W/m 7,6 C 10,0 C 0,0 km/h (0 Bft)
22/11/2011 03:15 9,9 C 85 % 1012,6 hPa 0,0 mm 1,1 km/h (1 Bft) E 90 0 min 0 W/m 7,5 C 9,9 C 4,0 km/h (1 Bft)
22/11/2011 03:20 9,9 C 85 % 1012,6 hPa 0,0 mm 2,5 km/h (1 Bft) SE 135 0 min 0 W/m 7,5 C 9,9 C 3,6 km/h (1 Bft)
22/11/2011 03:25 9,9 C 85 % 1012,6 hPa 0,0 mm 0,0 km/h (0 Bft) E-SE 112 0 min 0 W/m 7,5 C 9,9 C 0,0 km/h (0 Bft)
22/11/2011 03:30 9,9 C 85 % 1012,6 hPa 0,0 mm 1,8 km/h (1 Bft) E 90 0 min 0 W/m 7,5 C 9,9 C 3,6 km/h (1 Bft)
22/11/2011 03:35 9,8 C 85 % 1012,7 hPa 0,0 mm 1,1 km/h (1 Bft) E-SE 112 0 min 0 W/m 7,4 C 9,8 C 4,3 km/h (1 Bft)
22/11/2011 03:40 9,8 C 85 % 1012,7 hPa 0,0 mm 0,7 km/h (0 Bft) E-NE 67 0 min 0 W/m 7,4 C 9,8 C 4,0 km/h (1 Bft)
22/11/2011 03:45 9,8 C 85 % 1012,7 hPa 0,0 mm 0,0 km/h (0 Bft) E 90 0 min 0 W/m 7,4 C 9,8 C 3,6 km/h (1 Bft)
22/11/2011 03:50 9,8 C 85 % 1012,7 hPa 0,0 mm 0,0 km/h (0 Bft) E 90 0 min 0 W/m 7,4 C 9,8 C 0,0 km/h (0 Bft)
22/11/2011 03:55 9,8 C 85 % 1012,8 hPa 0,0 mm 0,0 km/h (0 Bft) E-SE 112 0 min 0 W/m 7,4 C 9,8 C 0,0 km/h (0 Bft)
22/11/2011 04:00 9,7 C 85 % 1012,8 hPa 0,0 mm 0,0 km/h (0 Bft) SE 135 0 min 0 W/m 7,3 C 9,7 C 0,0 km/h (0 Bft)
22/11/2011 04:05 9,6 C 85 % 1012,9 hPa 0,0 mm 0,0 km/h (0 Bft) E-SE 112 0 min 0 W/m 7,2 C 9,6 C 0,0 km/h (0 Bft)
22/11/2011 04:10 9,6 C 86 % 1012,8 hPa 0,0 mm 0,0 km/h (0 Bft) SE 135 0 min 0 W/m 7,4 C 9,6 C 0,0 km/h (0 Bft)
22/11/2011 04:15 9,5 C 86 % 1012,8 hPa 0,0 mm 0,0 km/h (0 Bft) SE 135 0 min 0 W/m 7,3 C 9,5 C 0,0 km/h (0 Bft)
22/11/2011 04:20 9,6 C 86 % 1012,9 hPa 0,0 mm 0,0 km/h (0 Bft) E-SE 112 0 min 0 W/m 7,4 C 9,6 C 2,9 km/h (1 Bft)
22/11/2011 04:25 9,6 C 86 % 1012,8 hPa 0,0 mm 0,0 km/h (0 Bft) E-SE 112 0 min 0 W/m 7,4 C 9,6 C 0,0 km/h (0 Bft)
22/11/2011 04:30 9,6 C 86 % 1012,8 hPa 0,0 mm 0,0 km/h (0 Bft) E-SE 112 0 min 0 W/m 7,4 C 9,6 C 0,0 km/h (0 Bft)
22/11/2011 04:35 9,7 C 86 % 1012,9 hPa 0,0 mm 0,0 km/h (0 Bft) E-SE 112 0 min 0 W/m 7,5 C 9,7 C 0,0 km/h (0 Bft)
22/11/2011 04:40 9,7 C 86 % 1013,0 hPa 0,0 mm 1,1 km/h (1 Bft) E-SE 112 0 min 0 W/m 7,5 C 9,7 C 4,0 km/h (1 Bft)
22/11/2011 04:45 9,8 C 86 % 1013,0 hPa 0,0 mm 0,0 km/h (0 Bft) E 90 0 min 0 W/m 7,6 C 9,8 C 0,0 km/h (0 Bft)
22/11/2011 04:50 9,8 C 86 % 1013,0 hPa 0,0 mm 0,0 km/h (0 Bft) E 90 0 min 0 W/m 7,6 C 9,8 C 0,0 km/h (0 Bft)
22/11/2011 04:55 9,6 C 86 % 1013,1 hPa 0,0 mm 0,0 km/h (0 Bft) E-NE 67 0 min 0 W/m 7,4 C 9,6 C 0,0 km/h (0 Bft)
22/11/2011 05:00 9,6 C 86 % 1013,1 hPa 0,0 mm 0,0 km/h (0 Bft) E 90 0 min 0 W/m 7,4 C 9,6 C 0,0 km/h (0 Bft)
22/11/2011 05:05 9,6 C 86 % 1013,1 hPa 0,0 mm 0,0 km/h (0 Bft) E-SE 112 0 min 0 W/m 7,4 C 9,6 C 0,0 km/h (0 Bft)
22/11/2011 05:10 9,6 C 86 % 1013,1 hPa 0,0 mm 0,4 km/h (0 Bft) E 90 0 min 0 W/m 7,4 C 9,6 C 2,9 km/h (1 Bft)
22/11/2011 05:15 9,6 C 86 % 1013,1 hPa 0,0 mm 0,0 km/h (0 Bft) E 90 0 min 0 W/m 7,4 C 9,6 C 0,0 km/h (0 Bft)
22/11/2011 05:20 9,6 C 86 % 1013,1 hPa 0,0 mm 0,0 km/h (0 Bft) E 90 0 min 0 W/m 7,4 C 9,6 C 0,0 km/h (0 Bft)
22/11/2011 05:25 9,6 C 86 % 1013,2 hPa 0,0 mm 0,0 km/h (0 Bft) E 90 0 min 0 W/m 7,4 C 9,6 C 0,0 km/h (0 Bft)
22/11/2011 05:30 9,6 C 86 % 1013,2 hPa 0,0 mm 0,0 km/h (0 Bft) E 90 0 min 0 W/m 7,4 C 9,6 C 0,0 km/h (0 Bft)
22/11/2011 05:35 9,6 C 86 % 1013,2 hPa 0,0 mm 0,0 km/h (0 Bft) E 90 0 min 0 W/m 7,4 C 9,6 C 0,0 km/h (0 Bft)
22/11/2011 05:40 9,6 C 86 % 1013,2 hPa 0,0 mm 0,0 km/h (0 Bft) E 90 0 min 0 W/m 7,4 C 9,6 C 0,0 km/h (0 Bft)
22/11/2011 05:45 9,6 C 86 % 1013,2 hPa 0,0 mm 0,0 km/h (0 Bft) E 90 0 min 0 W/m 7,4 C 9,6 C 0,0 km/h (0 Bft)
22/11/2011 05:50 9,6 C 86 % 1013,3 hPa 0,0 mm 0,0 km/h (0 Bft) E 90 0 min 0 W/m 7,4 C 9,6 C 0,0 km/h (0 Bft)
22/11/2011 05:55 9,6 C 87 % 1013,3 hPa 0,0 mm 0,0 km/h (0 Bft) E-SE 112 0 min 0 W/m 7,5 C 9,6 C 0,0 km/h (0 Bft)
22/11/2011 06:00 9,6 C 87 % 1013,3 hPa 0,0 mm 0,4 km/h (0 Bft) E 90 0 min 0 W/m 7,5 C 9,6 C 3,6 km/h (1 Bft)
22/11/2011 06:05 9,6 C 87 % 1013,3 hPa 0,0 mm 0,4 km/h (0 Bft) E 90 0 min 0 W/m 7,5 C 9,6 C 3,6 km/h (1 Bft)
22/11/2011 06:10 9,7 C 87 % 1013,2 hPa 0,0 mm 0,4 km/h (0 Bft) E-SE 112 0 min 0 W/m 7,6 C 9,7 C 0,4 km/h (0 Bft)
22/11/2011 06:15 9,8 C 87 % 1013,3 hPa 0,0 mm 2,9 km/h (1 Bft) E 90 0 min 0 W/m 7,7 C 9,8 C 3,6 km/h (1 Bft)
22/11/2011 06:20 9,8 C 87 % 1013,3 hPa 0,0 mm 0,4 km/h (0 Bft) E-NE 67 0 min 0 W/m 7,7 C 9,8 C 3,2 km/h (1 Bft)
22/11/2011 06:25 9,8 C 87 % 1013,3 hPa 0,0 mm 0,0 km/h (0 Bft) E 90 0 min 0 W/m 7,7 C 9,8 C 0,0 km/h (0 Bft)
22/11/2011 06:30 9,8 C 87 % 1013,3 hPa 0,0 mm 0,0 km/h (0 Bft) E-SE 112 0 min 0 W/m 7,7 C 9,8 C 0,0 km/h (0 Bft)
22/11/2011 06:35 9,8 C 86 % 1013,4 hPa 0,0 mm 0,0 km/h (0 Bft) E-SE 112 0 min 0 W/m 7,6 C 9,8 C 3,2 km/h (1 Bft)
22/11/2011 06:40 9,8 C 87 % 1013,4 hPa 0,0 mm 0,0 km/h (0 Bft) E-SE 112 0 min 0 W/m 7,7 C 9,8 C 0,0 km/h (0 Bft)
22/11/2011 06:45 9,7 C 87 % 1013,4 hPa 0,0 mm 1,1 km/h (1 Bft) E-NE 67 0 min 0 W/m 7,6 C 9,7 C 2,9 km/h (1 Bft)
22/11/2011 06:50 9,6 C 87 % 1013,4 hPa 0,0 mm 1,1 km/h (1 Bft) N 360 0 min 0 W/m 7,5 C 9,6 C 1,1 km/h (1 Bft)
22/11/2011 06:55 9,6 C 87 % 1013,4 hPa 0,0 mm 0,0 km/h (0 Bft) E-NE 67 0 min 0 W/m 7,5 C 9,6 C 0,0 km/h (0 Bft)
22/11/2011 07:00 9,4 C 86 % 1013,4 hPa 0,0 mm 0,0 km/h (0 Bft) E-NE 67 0 min 0 W/m 7,2 C 9,4 C 0,0 km/h (0 Bft)
22/11/2011 07:05 9,3 C 87 % 1013,5 hPa 0,0 mm 0,0 km/h (0 Bft) E-SE 112 0 min 0 W/m 7,2 C 9,3 C 0,0 km/h (0 Bft)
22/11/2011 07:10 9,3 C 87 % 1013,5 hPa 0,0 mm 0,0 km/h (0 Bft) E-SE 112 0 min 0 W/m 7,2 C 9,3 C 0,0 km/h (0 Bft)
22/11/2011 07:15 9,1 C 87 % 1013,5 hPa 0,0 mm 0,0 km/h (0 Bft) E-SE 112 0 min 0 W/m 7,1 C 9,1 C 0,0 km/h (0 Bft)
22/11/2011 07:20 9,1 C 87 % 1013,6 hPa 0,0 mm 0,0 km/h (0 Bft) E-SE 112 0 min 0 W/m 7,1 C 9,1 C 0,0 km/h (0 Bft)
22/11/2011 07:25 9,1 C 87 % 1013,7 hPa 0,0 mm 0,0 km/h (0 Bft) E-SE 112 0 min 0 W/m 7,1 C 9,1 C 0,0 km/h (0 Bft)
22/11/2011 07:30 9,1 C 87 % 1013,7 hPa 0,0 mm 0,0 km/h (0 Bft) E 90 0 min 0 W/m 7,1 C 9,1 C 0,0 km/h (0 Bft)
22/11/2011 07:35 9,1 C 87 % 1013,8 hPa 0,0 mm 0,0 km/h (0 Bft) E 90 0 min 0 W/m 7,1 C 9,1 C 0,0 km/h (0 Bft)
22/11/2011 07:40 9,1 C 87 % 1013,9 hPa 0,0 mm 0,0 km/h (0 Bft) E 90 0 min 0 W/m 7,1 C 9,1 C 0,0 km/h (0 Bft)
22/11/2011 07:45 9,1 C 88 % 1014,0 hPa 0,0 mm 0,0 km/h (0 Bft) E 90 0 min 0 W/m 7,2 C 9,1 C 0,0 km/h (0 Bft)
22/11/2011 07:50 9,1 C 88 % 1014,0 hPa 0,0 mm 0,0 km/h (0 Bft) E 90 0 min 0 W/m 7,2 C 9,1 C 0,0 km/h (0 Bft)
22/11/2011 07:55 9,1 C 88 % 1014,1 hPa 0,0 mm 0,0 km/h (0 Bft) E 90 0 min 0 W/m 7,2 C 9,1 C 0,0 km/h (0 Bft)
22/11/2011 08:00 9,1 C 88 % 1014,1 hPa 0,0 mm 0,0 km/h (0 Bft) E 90 0 min 0 W/m 7,2 C 9,1 C 0,0 km/h (0 Bft)
22/11/2011 08:05 9,2 C 88 % 1014,2 hPa 0,0 mm 0,0 km/h (0 Bft) E 90 0 min 0 W/m 7,3 C 9,2 C 0,0 km/h (0 Bft)
22/11/2011 08:10 9,2 C 88 % 1014,4 hPa 0,0 mm 0,0 km/h (0 Bft) E 90 0 min 0 W/m 7,3 C 9,2 C 0,0 km/h (0 Bft)
22/11/2011 08:15 9,3 C 89 % 1014,5 hPa 0,0 mm 0,0 km/h (0 Bft) E-SE 112 0 min 0 W/m 7,6 C 9,3 C 0,0 km/h (0 Bft)
22/11/2011 08:20 9,4 C 88 % 1014,5 hPa 0,0 mm 0,0 km/h (0 Bft) SE 135 0 min 0 W/m 7,5 C 9,4 C 0,0 km/h (0 Bft)
22/11/2011 08:25 9,5 C 88 % 1014,6 hPa 0,0 mm 1,1 km/h (1 Bft) E-SE 112 0 min 0 W/m 7,6 C 9,5 C 3,6 km/h (1 Bft)
22/11/2011 08:30 9,5 C 88 % 1014,6 hPa 0,0 mm 2,2 km/h (1 Bft) SE 135 0 min 0 W/m 7,6 C 9,5 C 3,2 km/h (1 Bft)
22/11/2011 08:35 9,7 C 88 % 1014,7 hPa 0,0 mm 0,0 km/h (0 Bft) SE 135 0 min 0 W/m 7,8 C 9,7 C 0,0 km/h (0 Bft)
22/11/2011 08:40 9,8 C 88 % 1014,6 hPa 0,0 mm 0,0 km/h (0 Bft) SE 135 0 min 0 W/m 7,9 C 9,8 C 0,0 km/h (0 Bft)
22/11/2011 08:45 9,8 C 88 % 1014,6 hPa 0,0 mm 0,0 km/h (0 Bft) SE 135 0 min 0 W/m 7,9 C 9,8 C 0,0 km/h (0 Bft)
22/11/2011 08:50 9,8 C 87 % 1014,7 hPa 0,0 mm 0,0 km/h (0 Bft) SE 135 0 min 0 W/m 7,7 C 9,8 C 0,0 km/h (0 Bft)
22/11/2011 08:55 9,7 C 87 % 1014,7 hPa 0,0 mm 0,0 km/h (0 Bft) SE 135 0 min 0 W/m 7,6 C 9,7 C 0,0 km/h (0 Bft)
22/11/2011 09:00 9,7 C 87 % 1014,8 hPa 0,0 mm 0,0 km/h (0 Bft) SE 135 0 min 0 W/m 7,6 C 9,7 C 0,0 km/h (0 Bft)
22/11/2011 09:05 9,6 C 87 % 1014,9 hPa 0,0 mm 0,0 km/h (0 Bft) SE 135 0 min 0 W/m 7,5 C 9,6 C 0,0 km/h (0 Bft)
22/11/2011 09:10 9,5 C 87 % 1014,9 hPa 0,0 mm 0,0 km/h (0 Bft) E-SE 112 0 min 0 W/m 7,4 C 9,5 C 0,0 km/h (0 Bft)
22/11/2011 09:15 9,4 C 87 % 1015,0 hPa 0,0 mm 0,0 km/h (0 Bft) E-SE 112 0 min 0 W/m 7,3 C 9,4 C 0,0 km/h (0 Bft)
22/11/2011 09:20 9,4 C 87 % 1015,2 hPa 0,0 mm 0,0 km/h (0 Bft) E-SE 112 0 min 0 W/m 7,3 C 9,4 C 0,0 km/h (0 Bft)
22/11/2011 09:25 9,4 C 87 % 1015,2 hPa 0,0 mm 0,0 km/h (0 Bft) E-SE 112 0 min 0 W/m 7,3 C 9,4 C 0,0 km/h (0 Bft)
22/11/2011 09:30 9,4 C 88 % 1015,2 hPa 0,0 mm 0,0 km/h (0 Bft) E-SE 112 0 min 0 W/m 7,5 C 9,4 C 0,0 km/h (0 Bft)
22/11/2011 09:35 9,3 C 88 % 1015,3 hPa 0,0 mm 0,0 km/h (0 Bft) E-SE 112 0 min 0 W/m 7,4 C 9,3 C 0,0 km/h (0 Bft)
22/11/2011 09:40 9,4 C 88 % 1015,3 hPa 0,0 mm 0,0 km/h (0 Bft) E-SE 112 0 min 0 W/m 7,5 C 9,4 C 0,0 km/h (0 Bft)
22/11/2011 09:45 9,5 C 88 % 1015,4 hPa 0,0 mm 0,0 km/h (0 Bft) E-SE 112 0 min 0 W/m 7,6 C 9,5 C 0,0 km/h (0 Bft)
22/11/2011 09:50 9,6 C 88 % 1015,5 hPa 0,0 mm 0,0 km/h (0 Bft) E-SE 112 0 min 0 W/m 7,7 C 9,6 C 0,0 km/h (0 Bft)
22/11/2011 09:55 9,8 C 88 % 1015,5 hPa 0,0 mm 0,0 km/h (0 Bft) E-SE 112 0 min 0 W/m 7,9 C 9,8 C 0,0 km/h (0 Bft)
22/11/2011 10:00 9,9 C 88 % 1015,5 hPa 0,0 mm 0,4 km/h (0 Bft) SE 135 0 min 0 W/m 8,0 C 9,9 C 0,4 km/h (0 Bft)
22/11/2011 10:05 10,2 C 87 % 1015,5 hPa 0,0 mm 0,0 km/h (0 Bft) E-SE 112 0 min 0 W/m 8,1 C 10,2 C 0,0 km/h (0 Bft)
22/11/2011 10:10 10,4 C 87 % 1015,7 hPa 0,0 mm 0,0 km/h (0 Bft) E-SE 112 0 min 0 W/m 8,3 C 10,4 C 0,0 km/h (0 Bft)
22/11/2011 10:15 10,8 C 87 % 1015,6 hPa 0,0 mm 0,0 km/h (0 Bft) E-SE 112 0 min 0 W/m 8,7 C 10,8 C 0,0 km/h (0 Bft)
22/11/2011 10:20 10,8 C 87 % 1015,6 hPa 0,0 mm 0,0 km/h (0 Bft) E-SE 112 0 min 0 W/m 8,7 C 10,8 C 0,0 km/h (0 Bft)
22/11/2011 10:25 11,0 C 86 % 1015,7 hPa 0,0 mm 0,0 km/h (0 Bft) E-SE 112 0 min 0 W/m 8,7 C 11,0 C 0,0 km/h (0 Bft)
22/11/2011 10:30 11,3 C 86 % 1015,7 hPa 0,0 mm 0,0 km/h (0 Bft) E-SE 112 0 min 0 W/m 9,0 C 11,3 C 0,0 km/h (0 Bft)
22/11/2011 10:35 11,6 C 86 % 1015,8 hPa 0,0 mm 0,0 km/h (0 Bft) E-SE 112 0 min 0 W/m 9,3 C 11,6 C 0,0 km/h (0 Bft)
22/11/2011 10:40 12,1 C 85 % 1015,9 hPa 0,0 mm 0,0 km/h (0 Bft) E-SE 112 0 min 0 W/m 9,7 C 12,1 C 0,0 km/h (0 Bft)
22/11/2011 10:45 12,6 C 84 % 1016,0 hPa 0,0 mm 0,0 km/h (0 Bft) N 360 0 min 0 W/m 10,0 C 12,6 C 0,0 km/h (0 Bft)
22/11/2011 10:50 13,1 C 83 % 1016,2 hPa 0,0 mm 0,0 km/h (0 Bft) E-SE 112 0 min 0 W/m 10,3 C 13,1 C 0,0 km/h (0 Bft)
22/11/2011 10:55 13,7 C 81 % 1016,4 hPa 0,0 mm 0,0 km/h (0 Bft) E-SE 112 0 min 0 W/m 10,5 C 13,7 C 0,0 km/h (0 Bft)
22/11/2011 11:00 14,4 C 80 % 1016,5 hPa 0,0 mm 0,7 km/h (0 Bft) E-SE 112 0 min 0 W/m 11,0 C 14,4 C 4,0 km/h (1 Bft)
22/11/2011 11:05 14,8 C 78 % 1016,5 hPa 0,0 mm 0,0 km/h (0 Bft) E-SE 112 0 min 0 W/m 11,0 C 14,8 C 0,0 km/h (0 Bft)
22/11/2011 11:10 15,3 C 76 % 1016,6 hPa 0,0 mm 0,0 km/h (0 Bft) E-SE 112 0 min 0 W/m 11,1 C 15,3 C 0,0 km/h (0 Bft)
22/11/2011 11:15 15,8 C 75 % 1016,7 hPa 0,0 mm 0,0 km/h (0 Bft) E-SE 112 0 min 0 W/m 11,4 C 15,8 C 0,0 km/h (0 Bft)
22/11/2011 11:20 16,3 C 75 % 1016,8 hPa 0,0 mm 0,0 km/h (0 Bft) E-SE 112 0 min 0 W/m 11,9 C 16,3 C 0,0 km/h (0 Bft)
22/11/2011 11:25 16,7 C 73 % 1016,8 hPa 0,0 mm 0,0 km/h (0 Bft) E-SE 112 0 min 0 W/m 11,8 C 16,7 C 0,0 km/h (0 Bft)
22/11/2011 11:30 17,1 C 71 % 1016,8 hPa 0,0 mm 0,0 km/h (0 Bft) E-SE 112 0 min 0 W/m 11,8 C 17,1 C 0,0 km/h (0 Bft)
22/11/2011 11:35 17,5 C 70 % 1016,8 hPa 0,0 mm 0,0 km/h (0 Bft) E-SE 112 0 min 0 W/m 12,0 C 17,5 C 0,0 km/h (0 Bft)
22/11/2011 11:40 17,8 C 68 % 1016,7 hPa 0,0 mm 0,0 km/h (0 Bft) E 90 0 min 0 W/m 11,8 C 17,8 C 3,2 km/h (1 Bft)
22/11/2011 11:45 18,0 C 67 % 1016,7 hPa 0,0 mm 1,4 km/h (1 Bft) E-NE 67 0 min 0 W/m 11,8 C 18,0 C 4,3 km/h (1 Bft)
22/11/2011 11:50 18,2 C 65 % 1016,7 hPa 0,0 mm 0,4 km/h (0 Bft) E-NE 67 0 min 0 W/m 11,5 C 18,2 C 3,2 km/h (1 Bft)
22/11/2011 11:55 18,3 C 65 % 1016,8 hPa 0,0 mm 1,1 km/h (1 Bft) E-NE 67 0 min 0 W/m 11,6 C 18,3 C 4,0 km/h (1 Bft)
22/11/2011 12:00 18,5 C 65 % 1016,9 hPa 0,0 mm 0,0 km/h (0 Bft) E-NE 67 0 min 0 W/m 11,8 C 18,5 C 0,0 km/h (0 Bft)
22/11/2011 12:05 18,7 C 65 % 1017,0 hPa 0,0 mm 0,7 km/h (0 Bft) NE 45 0 min 0 W/m 12,0 C 18,7 C 0,7 km/h (0 Bft)
22/11/2011 12:10 18,9 C 65 % 1017,0 hPa 0,0 mm 0,0 km/h (0 Bft) NE 45 0 min 0 W/m 12,2 C 18,9 C 0,0 km/h (0 Bft)
22/11/2011 12:15 19,1 C 65 % 1017,0 hPa 0,0 mm 0,0 km/h (0 Bft) NE 45 0 min 0 W/m 12,4 C 19,1 C 2,9 km/h (1 Bft)
22/11/2011 12:20 19,3 C 64 % 1017,1 hPa 0,0 mm 0,7 km/h (0 Bft) NE 45 0 min 0 W/m 12,3 C 19,3 C 4,3 km/h (1 Bft)
22/11/2011 12:25 19,4 C 63 % 1017,1 hPa 0,0 mm 0,4 km/h (0 Bft) NE 45 0 min 0 W/m 12,2 C 19,4 C 0,4 km/h (0 Bft)
22/11/2011 12:30 19,5 C 64 % 1017,0 hPa 0,0 mm 0,4 km/h (0 Bft) NE 45 0 min 0 W/m 12,5 C 19,5 C 3,2 km/h (1 Bft)
22/11/2011 12:35 19,6 C 63 % 1017,1 hPa 0,0 mm 0,4 km/h (0 Bft) N-NE 22 0 min 0 W/m 12,4 C 19,6 C 0,4 km/h (0 Bft)
22/11/2011 12:40 19,6 C 63 % 1017,0 hPa 0,0 mm 0,4 km/h (0 Bft) N-NE 22 0 min 0 W/m 12,4 C 19,6 C 0,4 km/h (0 Bft)
22/11/2011 12:45 19,7 C 62 % 1017,0 hPa 0,0 mm 2,5 km/h (1 Bft) N-NE 22 0 min 0 W/m 12,2 C 19,7 C 4,0 km/h (1 Bft)
22/11/2011 12:50 19,8 C 63 % 1017,2 hPa 0,0 mm 2,5 km/h (1 Bft) N-NE 22 0 min 0 W/m 12,5 C 19,8 C 5,8 km/h (2 Bft)
22/11/2011 12:55 19,9 C 63 % 1017,0 hPa 0,0 mm 1,8 km/h (1 Bft) NE 45 0 min 0 W/m 12,6 C 19,9 C 4,3 km/h (1 Bft)
22/11/2011 13:00 20,0 C 62 % 1017,1 hPa 0,0 mm 1,1 km/h (1 Bft) N-NE 22 0 min 0 W/m 12,5 C 20,0 C 1,1 km/h (1 Bft)
22/11/2011 13:05 20,1 C 62 % 1017,1 hPa 0,0 mm 1,1 km/h (1 Bft) N-NE 22 0 min 0 W/m 12,6 C 20,1 C 3,6 km/h (1 Bft)
22/11/2011 13:10 20,2 C 61 % 1017,0 hPa 0,0 mm 4,3 km/h (1 Bft) E-NE 67 0 min 0 W/m 12,4 C 20,2 C 7,9 km/h (2 Bft)
22/11/2011 13:15 20,1 C 61 % 1016,9 hPa 0,0 mm 3,2 km/h (1 Bft) NE 45 0 min 0 W/m 12,3 C 20,1 C 6,1 km/h (2 Bft)
22/11/2011 13:20 20,2 C 59 % 1016,8 hPa 0,0 mm 4,3 km/h (1 Bft) N-NE 22 0 min 0 W/m 11,9 C 20,2 C 4,3 km/h (1 Bft)
22/11/2011 13:25 20,2 C 59 % 1016,7 hPa 0,0 mm 0,0 km/h (0 Bft) N-NE 22 0 min 0 W/m 11,9 C 20,2 C 0,0 km/h (0 Bft)
22/11/2011 13:30 20,3 C 59 % 1016,8 hPa 0,0 mm 4,0 km/h (1 Bft) NE 45 0 min 0 W/m 12,0 C 20,3 C 9,4 km/h (2 Bft)
22/11/2011 13:35 20,4 C 58 % 1016,9 hPa 0,0 mm 0,4 km/h (0 Bft) N-NE 22 0 min 0 W/m 11,9 C 20,4 C 0,4 km/h (0 Bft)
22/11/2011 13:40 20,5 C 58 % 1017,0 hPa 0,0 mm 0,4 km/h (0 Bft) N-NE 22 0 min 0 W/m 11,9 C 20,5 C 3,6 km/h (1 Bft)
22/11/2011 13:45 20,5 C 57 % 1017,0 hPa 0,0 mm 1,4 km/h (1 Bft) NE 45 0 min 0 W/m 11,7 C 20,5 C 3,2 km/h (1 Bft)
22/11/2011 13:50 20,4 C 57 % 1017,0 hPa 0,0 mm 4,3 km/h (1 Bft) NE 45 0 min 0 W/m 11,6 C 20,4 C 7,9 km/h (2 Bft)
22/11/2011 13:55 20,3 C 57 % 1017,0 hPa 0,0 mm 0,0 km/h (0 Bft) NE 45 0 min 0 W/m 11,5 C 20,3 C 0,0 km/h (0 Bft)
22/11/2011 14:00 20,2 C 57 % 1016,9 hPa 0,0 mm 2,5 km/h (1 Bft) N-NE 22 0 min 0 W/m 11,4 C 20,2 C 2,9 km/h (1 Bft)
22/11/2011 14:05 20,1 C 57 % 1016,8 hPa 0,0 mm 1,4 km/h (1 Bft) N-NE 22 0 min 0 W/m 11,3 C 20,1 C 4,0 km/h (1 Bft)
22/11/2011 14:10 20,0 C 58 % 1016,6 hPa 0,0 mm 0,0 km/h (0 Bft) E-NE 67 0 min 0 W/m 11,5 C 20,0 C 0,0 km/h (0 Bft)
22/11/2011 14:15 19,9 C 58 % 1016,6 hPa 0,0 mm 3,6 km/h (1 Bft) N-NE 22 0 min 0 W/m 11,4 C 19,9 C 6,8 km/h (2 Bft)
22/11/2011 14:20 19,8 C 58 % 1016,5 hPa 0,0 mm 3,2 km/h (1 Bft) N-NE 22 0 min 0 W/m 11,3 C 19,8 C 4,3 km/h (1 Bft)
22/11/2011 14:25 19,6 C 58 % 1016,5 hPa 0,0 mm 2,9 km/h (1 Bft) N-NE 22 0 min 0 W/m 11,1 C 19,6 C 4,0 km/h (1 Bft)
22/11/2011 14:30 19,4 C 58 % 1016,3 hPa 0,0 mm 4,3 km/h (1 Bft) N-NE 22 0 min 0 W/m 10,9 C 19,4 C 7,2 km/h (2 Bft)
22/11/2011 14:35 19,4 C 58 % 1016,3 hPa 0,0 mm 4,0 km/h (1 Bft) N-NE 22 0 min 0 W/m 10,9 C 19,4 C 4,3 km/h (1 Bft)
22/11/2011 14:40 19,3 C 59 % 1016,3 hPa 0,0 mm 2,2 km/h (1 Bft) NE 45 0 min 0 W/m 11,1 C 19,3 C 7,2 km/h (2 Bft)
22/11/2011 14:45 19,2 C 59 % 1016,2 hPa 0,0 mm 0,0 km/h (0 Bft) E-NE 67 0 min 0 W/m 11,0 C 19,2 C 0,0 km/h (0 Bft)
22/11/2011 14:50 19,1 C 59 % 1016,3 hPa 0,0 mm 4,0 km/h (1 Bft) N-NE 22 0 min 0 W/m 10,9 C 19,1 C 7,2 km/h (2 Bft)
22/11/2011 14:55 19,0 C 60 % 1016,3 hPa 0,0 mm 0,7 km/h (0 Bft) N-NE 22 0 min 0 W/m 11,1 C 19,0 C 4,3 km/h (1 Bft)
22/11/2011 15:00 19,0 C 60 % 1016,3 hPa 0,0 mm 1,1 km/h (1 Bft) NE 45 0 min 0 W/m 11,1 C 19,0 C 2,9 km/h (1 Bft)
22/11/2011 15:05 18,9 C 59 % 1016,4 hPa 0,0 mm 1,4 km/h (1 Bft) NE 45 0 min 0 W/m 10,7 C 18,9 C 4,0 km/h (1 Bft)
_ Min-Heure 00:50 14:05 02:25 - 14:45 - - - - 00:50 00:50 14:45
Minimum _ 8,8 C 57 % 1012,4 hPa - 0,0 km/h (0 Bft) - - - - 6,6 C 8,8 C 0,0 km/h (0 Bft)
_ Max-Heure 13:45 08:15 12:50 15:05 14:30 - - 15:05 15:05 12:55 13:45 13:30
Maximum _ 20,5 C 89 % 1017,2 hPa 0,0 mm 4,3 km/h
N-NE (1 Bft)
- - 0 min 0 W/m 12,6 C 20,5 C 9,4 km/h
NE (2 Bft)
Moyenne _ 12,3 C 80 % 1014,4 hPa #0,0 mm 0,5 km/h (0 Bft) E-SE - #0 min. 0 W/m 8,7 C 12,3 C 1,4 km/h (1 Bft)
Saint Bonnet de Bellac- Haute Vienne - France